Date String (YYYY-MM-DD hh:mm:ss) UTC,Instrument flags,Ambient pressure (hPa),Sample flow (lpm),Bypass flow (lpm),Sample temperature (°C),Ambient temperature (°C),ASC tube jacket temperature (°C),LED temperature (°C),Box temperature (°C),Sample RH (%),Span deviation,Mass concentration (μg/m³),Mass concentration (μg/m³),Mass concentration (μg/m³)
DateTimeUTC,F1_M11,P_M11,Q1_M11,Q2_M11,T1_M11,T2_M11,T3_M11,T4_M11,T5_M11,U1_M11,ZSPAN_M11,X0_M11,X2_M11,X1_M11
2022-11-09 21:00:00,,0812.4,4.98,0.00,24.4,23.2,00.0,33.0,26.4,15.9,-001.1,0020.02,0010.61,0009.21
2022-11-09 21:01:00,,0812.4,5.01,0.00,24.4,23.2,00.0,33.1,26.4,15.9,-001.0,0020.22,0010.66,0009.23
2022-11-09 21:02:00,,0812.3,5.01,0.00,24.4,23.2,00.0,33.1,26.4,15.9,-001.2,0020.11,0010.67,0009.22
2022-11-09 21:03:00,,0812.3,4.98,0.00,24.4,23.2,00.0,33.1,26.4,15.9,-001.1,0019.45,0010.63,0009.22
2022-11-09 21:04:00,,0812.4,5.01,0.00,24.4,23.3,00.0,33.1,26.4,15.9,-001.0,0019.64,0010.62,0009.23
2022-11-09 21:05:00,,0812.4,5.00,0.00,24.4,23.3,00.0,33.1,26.4,15.9,-001.1,0019.05,0010.59,0009.23
2022-11-09 21:06:00,,0812.2,4.99,0.00,24.4,23.3,00.0,33.1,26.4,15.8,-001.0,0018.89,0010.58,0009.23
2022-11-09 21:07:00,,0812.2,5.00,0.00,24.4,23.3,00.0,33.1,26.4,15.8,-000.9,0017.50,0010.57,0009.24
2022-11-09 21:08:00,,0812.2,5.00,0.00,24.5,23.3,00.0,33.1,26.5,15.9,-000.5,0018.05,0010.57,0009.24
2022-11-09 21:09:00,,0812.2,5.02,0.00,24.5,23.3,00.0,33.1,26.5,15.8,-000.6,0018.80,0010.55,0009.27
2022-11-09 21:10:00,,0812.3,5.00,0.00,24.5,23.3,00.0,33.2,26.4,15.8,-000.7,0018.92,0010.57,0009.30
2022-11-09 21:11:00,,0812.1,5.00,0.00,24.5,23.3,00.0,33.2,26.5,15.8,-000.8,0018.63,0010.58,0009.32
2022-11-09 21:12:00,,0812.1,5.00,0.00,24.5,23.3,00.0,33.2,26.5,15.8,-000.9,0018.47,0010.60,0009.34
2022-11-09 21:13:00,,0812.1,5.00,0.00,24.5,23.3,00.0,33.2,26.5,15.8,-000.5,0018.37,0010.61,0009.36
2022-11-09 21:14:00,,0812.3,5.00,0.00,24.5,23.3,00.0,33.2,26.5,15.8,0000.3,0018.40,0010.61,0009.39
2022-11-09 21:15:00,,0812.2,4.99,0.00,24.5,23.3,00.0,33.2,26.5,15.8,0000.4,0018.41,0010.63,0009.40
2022-11-09 21:16:00,,0812.1,5.00,0.00,24.5,23.3,00.0,33.2,26.5,15.7,0000.4,0018.64,0010.65,0009.42
2022-11-09 21:17:00,,0812.2,5.00,0.00,24.5,23.3,00.0,33.2,26.5,15.8,0000.3,0019.70,0010.71,0009.46
2022-11-09 21:18:00,,0812.2,5.00,0.00,24.5,23.3,00.0,33.2,26.5,15.8,0000.1,0019.74,0010.74,0009.48
2022-11-09 21:19:00,,0812.4,5.00,0.00,24.6,23.3,00.0,33.2,26.5,15.7,0000.1,0019.37,0010.71,0009.47
2022-11-09 21:20:00,,0812.3,5.00,0.00,24.6,23.3,00.0,33.2,26.5,15.7,0000.1,0018.68,0010.70,0009.45
2022-11-09 21:21:00,,0812.2,5.00,0.00,24.6,23.3,00.0,33.3,26.5,15.7,-000.1,0018.94,0010.73,0009.44
2022-11-09 21:22:00,,0812.0,5.00,0.00,24.6,23.3,00.0,33.3,26.5,15.6,0000.2,0018.97,0010.70,0009.43
2022-11-09 21:23:00,,0811.8,5.00,0.00,24.6,23.3,00.0,33.3,26.6,15.6,-000.2,0019.15,0010.66,0009.41
2022-11-09 21:24:00,,0811.9,5.00,0.00,24.6,23.4,00.0,33.3,26.6,15.7,-000.8,0020.26,0010.71,0009.41
2022-11-09 21:25:00,,0812.2,5.00,0.00,24.6,23.4,00.0,33.3,26.6,15.7,-001.0,0020.82,0010.85,0009.44
2022-11-09 21:26:00,,0812.1,4.99,0.00,24.6,23.4,00.0,33.3,26.6,15.7,-001.2,0020.94,0010.89,0009.45
2022-11-09 21:27:00,,0812.1,4.99,0.00,24.6,23.4,00.0,33.3,26.6,15.7,-001.1,0020.88,0010.90,0009.45
2022-11-09 21:28:00,,0812.2,5.00,0.00,24.6,23.4,00.0,33.3,26.6,15.7,-001.0,0020.69,0010.95,0009.45
2022-11-09 21:29:00,,0812.1,5.01,0.00,24.6,23.4,00.0,33.3,26.6,15.6,-000.9,0020.93,0010.95,0009.45
2022-11-09 21:30:00,,0812.0,5.01,0.00,24.6,23.4,00.0,33.3,26.6,15.5,-000.8,0021.41,0011.03,0009.47
2022-11-09 21:31:00,,0812.0,4.98,0.00,24.7,23.5,00.0,33.3,26.6,15.5,-000.7,0022.75,0011.13,0009.51
2022-11-09 21:32:00,,0811.9,5.00,0.00,24.7,23.5,00.0,33.4,26.6,15.5,-000.6,0023.19,0011.13,0009.52
2022-11-09 21:33:00,,0811.8,5.01,0.00,24.7,23.5,00.0,33.4,26.6,15.6,-000.6,0023.41,0011.17,0009.54
2022-11-09 21:34:00,,0811.7,5.00,0.00,24.7,23.5,00.0,33.4,26.6,15.6,-000.0,0023.51,0011.23,0009.56
2022-11-09 21:35:00,,0812.0,5.00,0.00,24.7,23.5,00.0,33.4,26.7,15.5,0000.7,0024.14,0011.20,0009.58
2022-11-09 21:36:00,,0812.1,4.99,0.00,24.7,23.5,00.0,33.4,26.7,15.5,0000.3,0024.23,0011.10,0009.57
2022-11-09 21:37:00,,0811.9,5.00,0.00,24.7,23.5,00.0,33.4,26.7,15.5,0000.4,0023.31,0011.08,0009.57
2022-11-09 21:38:00,,0811.7,4.99,0.00,24.7,23.5,00.0,33.4,26.7,15.5,-000.1,0023.07,0011.06,0009.55
2022-11-09 21:39:00,,0811.8,5.01,0.00,24.7,23.5,00.0,33.4,26.7,15.5,-000.1,0022.68,0011.04,0009.57
2022-11-09 21:40:00,,0811.9,5.01,0.00,24.7,23.5,00.0,33.4,26.7,15.5,-000.1,0022.08,0011.03,0009.59
2022-11-09 21:41:00,,0812.0,5.00,0.00,24.7,23.5,00.0,33.4,26.7,15.5,-000.2,0021.37,0010.93,0009.58
2022-11-09 21:42:00,,0811.8,4.99,0.00,24.8,23.6,00.0,33.5,26.7,15.5,-000.1,0019.83,0010.86,0009.55
2022-11-09 21:43:00,,0811.8,4.99,0.00,24.8,23.6,00.0,33.5,26.7,15.5,-000.1,0019.11,0010.89,0009.55
2022-11-09 21:44:00,,0811.6,5.01,0.00,24.8,23.6,00.0,33.5,26.7,15.5,-000.3,0019.13,0010.87,0009.54
2022-11-09 21:45:00,,0811.6,5.00,0.00,24.8,23.6,00.0,33.5,26.7,15.5,-000.3,0019.21,0010.85,0009.52
2022-11-09 21:46:00,,0811.7,4.98,0.00,24.8,23.6,00.0,33.5,26.8,15.5,-000.5,0017.73,0010.81,0009.49
2022-11-09 21:47:00,,0811.9,5.01,0.00,24.8,23.6,00.0,33.5,26.8,15.5,-000.4,0018.09,0010.83,0009.46
2022-11-09 21:48:00,,0811.9,5.01,0.00,24.8,23.6,00.0,33.5,26.8,15.5,-000.3,0019.13,0010.77,0009.42
2022-11-09 21:49:00,,0811.9,4.98,0.00,24.8,23.6,00.0,33.5,26.8,15.5,-000.2,0019.57,0010.75,0009.41
2022-11-09 21:50:00,,0811.8,5.00,0.00,24.8,23.7,00.0,33.5,26.8,15.5,-000.4,0020.28,0010.69,0009.38
2022-11-09 21:51:00,,0811.6,5.01,0.00,24.9,23.7,00.0,33.5,26.8,15.5,-000.3,0020.16,0010.62,0009.34
2022-11-09 21:52:00,,0811.6,5.01,0.00,24.9,23.7,00.0,33.5,26.8,15.5,-000.1,0020.58,0010.66,0009.33
2022-11-09 21:53:00,,0811.7,5.00,0.00,24.9,23.7,00.0,33.6,26.8,15.4,-000.1,0020.49,0010.65,0009.33
2022-11-09 21:54:00,,0811.6,5.00,0.00,24.9,23.7,00.0,33.6,26.8,15.4,0000.1,0020.25,0010.52,0009.31
2022-11-09 21:55:00,,0811.8,5.00,0.00,24.9,23.6,00.0,33.6,26.8,15.4,0000.1,0020.56,0010.51,0009.30
2022-11-09 21:56:00,,0811.8,5.00,0.00,24.9,23.7,00.0,33.6,26.8,15.4,-000.4,0020.66,0010.53,0009.29
2022-11-09 21:57:00,,0811.6,5.00,0.00,24.9,23.7,00.0,33.6,26.8,15.4,-000.5,0021.09,0010.54,0009.30
2022-11-09 21:58:00,,0811.6,5.01,0.00,24.9,23.7,00.0,33.6,26.8,15.4,-000.7,0021.17,0010.49,0009.29
2022-11-09 21:59:00,,0811.6,5.00,0.00,24.9,23.7,00.0,33.6,26.8,15.4,-000.8,0020.52,0010.53,0009.32
